Dubai, UAE

2:04 PM +04 on July 24, 2017 (GMT +0400)
Dubai International

Weather History for OMDB - October, 2012

Change the Weather History Date:

Sunday, October 7, 2012

  Actual Average Record
Temperature  
Mean Temperature 90 °F -  
Max Temperature 103 °F 91 °F 104 °F (2015)
Min Temperature 78 °F 73 °F 77 °F (1996)
Cooling Degree Days 26    
Growing Degree Days 40 (Base 50)    
Moisture  
Dew Point 71 °F    
Average Humidity 58    
Maximum Humidity 78    
Minimum Humidity 16    
Precipitation  
Precipitation 0.00 in 0.00 in - ()
Sea Level Pressure  
Sea Level Pressure 29.87 in    
Wind  
Wind Speed 6 mph ()    
Max Wind Speed 16 mph    
Max Gust Speed -    
Visibility 5.7 miles    
Events      
Averages and records for this station are not official NWS values.
T = Trace of Precipitation, MM = Missing Value Source: Averaged Metar Reports

Daily Weather History Graph

Daily Weather History Graph

Search for Another Location

Airport or City:

Trip Planner

Search our weather history database for the weather conditions in past years. The results will help you decide how hot, cold, wet, or windy it might be!

Date:

Astronomy

Oct. 07, 2012 Rise Set
Actual Time 6:13 AM +04 5:59 PM +04
Civil Twilight 5:50 AM +04 6:22 PM +04
Nautical Twilight 5:23 AM +04 6:48 PM +04
Astronomical Twilight 4:57 AM +04 7:15 PM +04
Moon 11:11 PM +04 (10/7) 12:08 PM +04 (10/7)
Length of Visible Light 12h 31m
Length of Day
11h 45m
Waning Gibbous, 59% of the Moon is Illuminated
Oct 7
Waning Gibbous
Oct 8
Last Quarter
Oct 15
New
Oct 22
First Quarter
Oct 29
Full

Hourly Weather History & Observations

Time (+04) Temp. Heat Index Dew Point Humidity Pressure Visibility Wind Dir Wind Speed Gust Speed Precip Events Conditions
12:00 AM 87.8 °F 93.8 °F 71.6 °F 58% 29.86 in - NE 3.5 mph - N/A   Clear
1:00 AM 86 °F - 71 °F 52% 29.85 in 6 mi NE 4.6 mph - -  
1:00 AM 86.0 °F 91.8 °F 71.6 °F 62% 29.83 in - NE 4.6 mph - N/A   Clear
2:00 AM 86.0 °F 93.4 °F 73.4 °F 66% 29.83 in - NE 3.5 mph - N/A   Clear
3:00 AM 84.2 °F 90.9 °F 73.4 °F 70% 29.86 in - East 5.8 mph - N/A   Clear
4:00 AM 82 °F - 73 °F 68% 29.86 in 6 mi East 4.6 mph - -  
4:00 AM 82.4 °F 88.2 °F 73.4 °F 74% 29.83 in - East 4.6 mph - N/A   Clear
5:00 AM 80.6 °F 84.6 °F 71.6 °F 74% 29.86 in - ESE 4.6 mph - N/A   Clear
6:00 AM 80.6 °F 84.6 °F 71.6 °F 74% 29.86 in - ESE 3.5 mph - N/A   Clear
7:00 AM 79 °F - 72 °F 75% 29.90 in 5 mi East 3.5 mph - -   Haze
7:00 AM 78.8 °F - 71.6 °F 78% 29.89 in 5.0 mi East 3.5 mph - N/A   Unknown
8:00 AM 84.2 °F 92.3 °F 75.2 °F 74% 29.92 in - ESE 3.5 mph - N/A   Clear
9:00 AM 87.8 °F 93.8 °F 71.6 °F 58% 29.92 in - ESE 4.6 mph - N/A   Clear
10:00 AM 93.2 °F 93.3 °F 60.8 °F 34% 29.92 in - East 3.5 mph - N/A   Clear
11:00 AM 98.6 °F - 44.6 °F 16% 29.89 in - NNE 9.2 mph - N/A   Clear
1:00 PM 96 °F - 70 °F 33% 29.87 in 6 mi NW 15.0 mph - -  
1:00 PM 95.0 °F 101.3 °F 69.8 °F 44% 29.86 in - NW 15.0 mph - N/A   Clear
2:00 PM 93.2 °F 102.4 °F 73.4 °F 52% 29.86 in - NNW 15.0 mph - N/A   Clear
3:00 PM 93.2 °F 100.5 °F 71.6 °F 49% 29.83 in - NNW 16.1 mph - N/A   Clear
4:00 PM 91.4 °F 102.5 °F 75.2 °F 59% 29.83 in - NNW 16.1 mph - N/A   Clear
5:00 PM 89.6 °F 99.8 °F 75.2 °F 62% 29.83 in - NNW 12.7 mph - N/A   Clear
6:00 PM 89.6 °F 99.8 °F 75.2 °F 62% 29.86 in - NW 9.2 mph - N/A   Clear
7:00 PM 88 °F - 74 °F 56% 29.87 in 6 mi NNE 8.1 mph - -  
7:00 PM 87.8 °F 97.6 °F 75.2 °F 66% 29.86 in - NNE 8.1 mph - N/A   Clear
8:00 PM 89.6 °F 96.2 °F 71.6 °F 55% 29.89 in - NNE 9.2 mph - N/A   Clear
9:00 PM 89.6 °F 93.4 °F 68.0 °F 49% 29.89 in - NE 5.8 mph - N/A   Clear
10:00 PM 88 °F - 70 °F 47% 29.90 in 6 mi ENE 4.6 mph - -  
10:00 PM 87.8 °F 92.6 °F 69.8 °F 55% 29.89 in - ENE 4.6 mph - N/A   Clear
11:00 PM 87.8 °F 93.8 °F 71.6 °F 58% 29.89 in - NE 3.5 mph - N/A   Clear